RH
76 69 66 65 63 60 62 68 69 72 84 96 99 97 97 100 100 99 100 98 99 100 99 100 101 99 98 94 88 84 79 75 73 71 69 65 60 56 53 49 47 45 44 42 40 39 38 37 36 34 32 29 26 23 19 15 12 9 7 6 5 4 3 3 3 3 4 3 4 4 4 5 6 7
88 81 70 60 58 58 55 61 70 73 77 87 97 98 95 99 101 98 99 100 99 100 99 99 100 100 100 98 93 89 85 81 78 76 73 68 63 59 56 52 50 49 47 45 44 43 41 40 38 36 33 30 26 22 17 14 10 8 7 5 4 4 3 3 3 3 4 4 4 5 6 7 8 8
91 92 86 70 58 56 52 52 63 73 75 75 86 99 99 98 100 100 100 100 100 100 98 99 100 100 101 100 97 93 90 88 85 82 78 74 69 65 63 60 58 55 53 51 49 47 44 42 39 36 33 29 24 18 14 12 9 6 6 5 4 4 3 3 3 4 4 5 6 6 7 8 8 9
81 90 92 83 70 61 52 48 54 68 76 74 77 92 101 99 98 100 100 99 100 100 98 99 100 99 100 100 99 97 95 93 91 89 86 81 77 73 71 70 68 64 60 56 53 50 46 44 40 36 31 25 19 15 12 9 7 6 4 4 4 3 4 3 3 5 5 6 7 7 9 10 11 13
62 79 90 92 87 76 60 50 51 60 71 76 77 84 95 98 94 94 98 100 100 100 99 99 99 100 100 99 99 99 99 98 96 94 91 88 85 81 78 77 75 71 66 61 57 53 49 44 38 32 26 20 15 12 10 7 6 6 4 4 4 3 4 4 4 6 6 7 8 8 12 17 18 19
40 57 74 88 96 94 79 63 56 59 69 77 77 78 85 90 88 89 96 101 100 99 100 99 99 100 100 99 99 99 100 100 99 96 94 91 89 86 84 82 79 75 71 65 59 53 47 41 33 26 19 15 12 8 8 7 5 5 4 4 4 3 4 4 4 7 7 8 9 9 15 23 24 23
31 48 61 70 82 95 97 86 71 66 72 81 83 80 82 86 83 80 88 98 101 100 99 100 99 99 100 100 99 100 100 101 101 98 94 91 89 87 86 83 80 77 74 67 59 49 41 32 23 18 13 10 9 7 6 6 5 5 4 3 4 4 4 5 6 8 9 9 11 12 18 24 25 23
30 51 63 65 68 76 89 98 92 80 78 86 92 90 87 89 85 75 76 89 100 101 100 100 99 99 100 100 100 100 100 101 101 97 92 89 87 85 84 82 79 77 72 63 52 39 28 21 15 12 10 8 7 6 5 5 5 4 4 4 4 4 5 6 7 9 10 11 13 17 22 24 24 22
25 38 56 72 76 68 69 85 97 94 86 86 95 99 96 95 93 82 74 81 94 100 100 100 99 99 100 100 100 100 100 101 100 95 91 88 85 83 82 82 79 74 66 52 38 26 17 14 11 9 8 7 6 6 5 5 4 4 4 4 5 6 7 7 8 10 11 12 15 19 23 24 22 21
33 31 43 71 91 83 68 68 80 93 96 93 94 100 100 98 98 93 86 83 89 96 100 100 99 99 99 100 100 100 100 101 99 94 90 85 82 80 80 80 74 62 48 34 22 16 12 10 9 8 7 6 6 5 5 4 4 4 5 6 7 7 8 7 9 11 12 13 17 21 23 23 21 19
40 34 34 54 82 92 81 67 67 80 94 99 98 99 100 101 99 99 98 93 89 92 98 100 99 99 100 100 100 100 100 101 99 95 90 84 80 79 78 75 62 41 26 19 13 10 10 9 8 7 6 6 5 5 5 5 5 6 7 9 10 9 9 9 9 11 12 14 18 21 21 21 19 16
42 42 41 46 63 87 94 82 72 77 87 96 101 101 100 101 100 99 101 98 92 90 95 100 100 99 100 100 100 100 100 100 99 95 89 83 79 79 75 63 43 22 13 12 10 9 8 8 7 6 6 6 5 5 6 6 7 8 10 12 12 11 10 9 10 11 14 16 18 20 19 18 17 15
43 48 52 49 51 73 96 97 88 89 92 95 99 100 100 101 100 100 101 99 96 95 97 100 100 99 100 100 100 100 100 100 99 95 89 83 80 77 67 45 22 11 10 10 9 9 8 7 7 6 6 5 5 6 7 9 10 12 14 14 14 13 11 11 12 13 14 16 17 18 17 16 15 15
49 52 55 49 42 51 78 98 100 98 99 99 99 100 100 100 100 100 101 100 99 99 99 100 100 100 100 100 100 100 100 99 97 92 88 84 77 65 48 27 12 8 9 9 8 8 7 7 6 6 5 5 6 8 9 12 14 15 16 16 15 14 13 14 13 13 14 15 15 15 15 15 18 23
52 55 53 48 42 41 57 84 100 100 100 101 100 100 100 100 100 100 100 100 99 100 100 100 100 100 100 101 101 100 100 98 94 91 88 80 64 42 24 14 10 9 8 8 8 8 7 7 6 5 6 6 8 11 12 15 17 18 18 19 19 20 19 18 17 17 17 17 18 21 24 29 35 38
55 56 52 45 43 42 51 77 98 100 100 101 99 100 100 99 100 101 99 97 98 100 100 100 100 100 100 100 100 100 99 97 93 90 83 65 40 21 12 10 9 8 8 8 8 7 6 6 6 5 6 8 11 13 15 18 19 20 21 22 22 22 21 20 20 20 21 26 32 39 45 48 50 49
60 58 55 49 42 39 52 81 101 101 99 100 99 100 100 99 100 101 98 96 98 100 100 100 100 100 100 100 100 100 97 94 91 83 63 37 18 11 10 9 8 8 8 8 7 7 7 7 6 5 6 10 13 15 18 20 20 21 23 24 23 23 23 24 25 26 30 37 42 47 50 51 51 51
69 63 61 57 49 44 56 81 99 101 99 100 100 100 100 100 99 100 99 98 100 101 100 100 99 99 100 100 99 99 96 92 82 62 35 16 10 10 9 8 8 8 8 8 7 7 7 7 7 6 7 11 14 16 18 19 21 26 29 31 32 34 37 39 40 41 43 44 46 47 49 52 53 54
85 77 69 62 58 59 67 83 97 101 100 99 100 100 100 100 99 100 100 100 101 101 100 100 100 100 100 100 99 99 95 82 59 33 15 10 9 9 8 8 8 8 9 9 8 7 7 7 7 7 9 13 14 15 18 21 28 36 41 44 47 47 48 47 46 47 48 49 52 54 54 58 59 58
95 93 83 69 64 71 82 93 100 101 99 100 100 100 100 101 100 100 100 100 100 100 101 101 102 100 99 100 98 91 77 54 30 14 10 10 9 8 9 8 8 8 8 9 8 7 6 8 9 10 13 16 16 17 23 30 39 48 55 59 57 53 50 50 49 53 55 54 53 52 53 56 57 56
99 100 94 83 79 84 93 99 101 100 100 100 99 99 101 102 101 100 100 100 100 100 101 102 100 99 100 97 85 66 46 26 13 10 10 9 8 9 8 8 8 8 7 9 9 7 6 10 13 13 15 17 17 21 31 42 51 58 65 68 64 58 57 58 58 57 52 45 43 46 51 54 59 66
99 101 100 95 93 95 99 100 100 100 100 100 100 100 101 101 101 101 100 99 100 101 101 100 101 100 95 79 56 36 23 14 11 10 9 8 9 9 8 9 8 7 7 8 8 7 8 11 14 16 17 17 19 27 39 49 54 60 69 72 66 64 66 66 63 56 48 45 49 58 66 64 69 84
97 101 101 98 97 99 101 101 100 100 100 100 100 100 100 101 101 100 100 100 101 100 100 100 100 91 70 46 28 19 14 12 10 9 8 9 9 9 9 9 8 8 8 8 7 7 8 11 14 16 17 16 18 27 37 44 49 60 76 78 65 64 71 70 62 55 54 60 66 72 78 78 80 92
99 101 99 98 99 100 101 100 100 100 100 100 100 101 101 100 100 100 101 101 99 99 101 97 84 62 38 22 16 13 11 10 9 9 9 10 10 10 11 10 10 10 9 8 8 8 7 10 13 14 17 17 20 27 34 42 51 64 77 77 65 66 73 71 67 66 68 76 79 76 79 87 91 96
101 100 100 100 99 100 100 100 100 100 99 100 100 101 100 100 101 101 99 99 100 101 94 75 51 31 19 15 13 10 9 9 9 10 11 11 12 12 13 13 13 13 12 10 10 8 8 10 11 12 15 18 25 34 37 40 53 67 73 72 69 71 74 76 81 85 82 81 80 75 81 93 98 98
99 99 101 100 100 100 100 100 100 100 100 101 101 101 101 100 100 99 98 100 99 88 66 42 25 18 14 12 10 9 9 10 10 12 13 13 14 15 15 16 16 15 15 14 11 11 10 9 10 12 13 15 27 43 47 43 51 64 67 68 73 77 83 89 92 92 88 81 77 78 89 100 99 98
98 100 101 99 100 101 99 100 101 100 100 101 101 101 101 99 99 101 101 97 80 56 36 23 18 16 12 10 9 9 10 11 12 14 15 15 16 17 17 19 19 19 19 17 15 14 12 11 11 11 12 14 25 44 56 54 54 59 60 63 69 75 83 91 92 90 87 80 76 82 94 99 97 97
100 101 100 100 100 100 99 100 100 99 100 101 101 101 99 99 102 102 92 74 51 32 23 19 15 13 10 9 10 10 11 13 14 15 16 17 18 20 21 22 23 23 23 22 20 19 16 14 13 10 12 15 24 43 60 58 54 61 63 61 64 75 87 91 88 90 92 86 81 85 93 97 97 98
101 99 98 100 100 100 101 100 97 98 101 100 98 99 101 102 100 88 67 46 32 23 20 16 13 11 10 10 11 11 12 14 15 16 17 19 21 23 25 27 28 28 28 27 25 24 21 18 15 12 12 15 23 46 64 60 55 66 72 66 65 74 83 83 81 88 96 97 94 92 92 96 99 99
99 99 100 101 100 100 101 97 93 96 99 97 97 101 102 96 82 61 42 30 23 20 17 14 11 11 10 11 12 13 14 16 16 17 19 21 24 27 30 31 32 33 33 32 31 29 26 23 18 13 13 16 27 53 74 72 65 71 80 81 73 63 62 71 83 90 95 99 100 96 91 92 98 100
98 100 100 99 98 98 98 96 96 100 100 99 101 100 91 75 55 39 29 23 20 17 14 12 11 11 12 13 13 15 17 17 18 20 22 25 29 31 34 36 37 38 38 38 37 35 32 28 22 15 15 20 35 62 85 88 80 78 85 89 76 57 58 78 93 99 100 100 96 90 86 89 93 95
99 97 94 95 97 98 100 100 101 101 100 101 99 86 68 50 36 29 25 21 18 15 12 11 12 12 13 14 15 17 18 18 20 24 27 29 32 35 38 41 42 43 44 44 43 42 38 34 27 19 18 26 44 68 87 94 92 87 87 87 76 64 75 96 102 96 92 88 81 77 79 83 85 88
99 97 97 99 100 100 101 101 100 100 101 98 85 64 47 36 30 26 23 18 15 13 12 12 13 13 14 16 17 18 19 20 23 26 29 32 35 38 43 45 45 47 47 48 48 48 45 41 34 24 20 30 52 74 84 89 91 88 88 92 88 82 94 104 89 66 56 54 55 60 67 69 69 72
100 100 100 101 100 100 102 102 102 102 96 81 62 46 36 31 26 22 18 15 13 13 13 13 14 15 16 17 17 19 20 22 25 28 30 33 37 41 46 48 48 50 51 52 53 51 49 46 42 33 23 28 53 80 90 89 86 83 89 101 101 96 102 99 74 56 57 58 51 46 50 55 57 56
100 100 100 100 99 99 101 103 102 95 79 60 45 37 30 25 21 18 15 14 14 14 15 16 16 16 17 18 19 20 21 22 25 27 30 33 38 43 46 49 52 54 55 56 57 56 55 51 46 41 31 25 41 72 93 96 87 78 84 99 103 99 102 100 88 82 90 93 80 59 43 38 41 43
100 100 99 99 98 98 100 101 93 78 61 46 36 29 24 20 18 17 15 15 16 17 17 17 17 18 18 19 20 21 21 23 24 26 29 32 37 42 46 50 55 57 59 60 60 60 60 57 53 48 40 29 29 46 71 89 91 83 82 92 101 102 99 99 101 99 97 101 102 88 66 52 54 64
101 99 97 98 99 100 101 95 79 60 46 36 28 23 21 19 18 17 17 18 19 19 19 19 19 20 20 21 21 21 22 23 24 25 28 32 37 41 44 48 55 60 63 64 65 64 64 62 59 55 48 39 30 30 44 65 81 90 91 88 93 101 99 94 100 103 98 98 99 94 89 85 87 97
100 99 100 99 100 102 97 83 64 47 35 27 23 21 20 19 19 19 21 21 21 21 21 21 21 22 22 22 22 23 23 23 24 25 27 31 35 39 42 46 53 60 64 67 68 69 67 64 62 59 54 47 36 29 33 45 61 85 98 89 84 94 99 96 98 100 99 99 98 94 95 96 98 106
97 100 101 100 100 100 89 68 50 36 28 24 22 21 20 21 22 23 23 23 22 22 23 23 23 23 23 23 23 24 24 24 24 24 26 28 32 36 39 42 48 56 64 67 69 70 69 66 63 59 56 54 46 37 35 36 45 71 96 95 85 89 96 97 98 100 99 98 99 101 97 85 81 89
97 98 98 99 101 95 75 52 37 29 25 23 23 22 23 25 25 25 25 25 24 25 25 25 25 24 24 24 24 25 24 23 23 23 24 26 28 31 34 38 43 51 59 65 68 69 69 67 64 59 57 57 56 51 45 37 36 54 83 98 97 94 97 97 95 97 102 99 97 103 98 68 40 35
100 99 99 100 99 86 63 43 32 27 26 25 25 26 28 28 27 27 27 27 26 26 27 26 26 25 25 25 26 26 25 24 23 23 23 24 25 27 29 32 37 44 52 59 65 68 68 66 65 64 63 61 59 58 53 43 34 38 62 91 102 99 99 100 94 91 99 101 97 102 101 79 54 39
101 101 101 101 96 81 60 45 36 31 29 29 30 30 30 29 29 29 28 28 27 28 27 27 26 26 26 27 29 30 29 28 27 26 26 26 26 26 28 30 33 38 45 52 60 65 67 68 67 67 66 64 60 58 55 50 40 32 42 73 98 101 99 101 99 94 96 99 99 99 100 96 91 87
98 99 101 101 95 80 61 48 40 36 35 35 34 33 31 30 30 30 29 28 28 28 28 27 27 27 27 28 29 30 31 32 31 30 30 30 29 29 30 30 32 36 40 46 53 59 64 68 70 68 67 65 63 60 57 53 48 38 34 52 81 98 101 100 100 99 99 99 98 97 97 100 100 98
96 98 100 100 94 81 65 52 45 41 39 36 34 32 31 31 31 30 30 29 29 29 29 29 29 28 28 27 27 27 29 31 32 32 32 33 34 35 34 34 35 37 39 42 47 53 60 66 70 71 69 67 65 62 58 55 51 45 36 36 53 79 98 102 99 100 101 100 98 96 95 98 101 99
95 97 99 99 96 86 73 61 52 45 40 36 35 34 34 33 32 31 31 31 31 31 31 30 30 30 29 29 28 26 26 28 29 30 32 35 37 38 38 39 39 40 41 43 45 51 58 64 70 74 73 71 69 65 61 58 54 48 41 33 33 56 89 103 99 98 101 101 100 100 98 99 100 99
Wind_Speed
53 52 52 53 53 51 51 50 48 46 46 47 48 49 50 53 56 58 59 59 57 55 53 50 48 47 47 48 47 47 48 48 49 49 49 50 49 49 48 49 49 50 50 50 50 50 50 51 51 51 51 52 52 53 53 54 54 55 56 57 58 58 59 60 60 60 60 60 59 59 58 57 58 59
60 57 55 54 54 53 53 52 50 48 46 46 48 49 49 51 53 55 57 57 57 56 53 50 49 48 47 48 47 47 47 48 48 49 49 50 50 49 49 49 49 50 50 51 51 51 52 52 52 52 52 53 53 54 54 55 55 56 57 57 58 59 60 60 61 61 61 60 59 58 57 56 57 58
63 62 60 57 54 54 54 53 52 50 48 46 48 50 50 50 51 52 54 56 57 57 54 51 49 48 47 47 47 46 47 47 48 48 49 50 50 50 50 49 49 50 51 52 52 52 53 53 53 53 53 53 53 54 55 56 56 57 57 58 59 60 61 61 61 61 60 59 58 58 56 56 57 57
59 60 61 60 57 56 55 54 53 52 50 48 47 49 51 51 51 51 53 55 56 57 56 53 50 49 47 46 46 46 46 47 47 48 49 50 51 52 51 50 50 51 52 52 53 53 53 53 54 54 54 54 54 55 56 57 58 58 58 59 60 61 61 62 62 61 60 58 58 57 55 55 56 57
54 55 56 58 58 57 57 55 54 54 53 50 48 49 51 51 51 53 54 54 55 56 56 55 52 50 47 45 44 44 45 46 47 48 49 50 52 53 52 51 51 51 52 53 53 54 54 54 54 54 54 54 55 56 57 58 59 59 59 60 61 61 62 62 62 61 59 57 57 56 55 55 54 56
47 49 51 53 54 55 56 56 56 55 54 53 50 49 50 51 51 52 53 53 54 56 57 56 54 51 48 45 43 43 43 44 45 46 47 49 51 52 53 52 52 53 53 53 53 53 54 54 54 54 54 55 56 57 58 59 60 60 60 61 61 62 62 62 61 60 58 56 56 55 55 55 54 54
42 43 46 48 50 51 52 54 56 56 55 54 52 50 50 51 50 50 51 52 54 55 57 57 55 52 49 46 43 42 42 42 42 44 46 48 50 51 52 52 53 54 53 52 52 52 53 54 54 54 54 55 57 58 59 60 60 61 61 61 62 62 62 61 60 59 57 56 56 55 56 56 54 54
43 42 42 44 46 48 49 50 52 54 54 53 53 52 51 51 50 50 50 51 53 54 56 57 57 54 50 47 44 43 42 41 41 42 44 46 48 49 50 51 52 52 52 51 51 51 52 52 53 54 55 56 57 58 59 60 61 62 62 62 62 62 61 60 60 59 57 57 56 56 56 56 56 55
44 43 42 41 43 45 46 47 48 50 53 53 52 52 52 52 51 50 50 50 51 53 55 57 57 56 52 48 46 44 42 41 41 42 43 44 46 48 48 49 50 50 50 50 50 50 51 51 52 53 55 56 57 58 59 60 61 62 62 62 62 61 59 59 59 58 57 57 57 57 57 58 58 58
44 43 42 42 42 42 43 45 46 46 48 50 51 52 52 52 52 51 50 49 50 51 54 56 57 57 54 50 47 45 43 42 42 42 43 43 45 46 46 46 47 47 48 49 49 49 50 51 52 53 55 56 57 58 59 60 61 61 61 61 60 59 57 57 58 58 57 57 58 58 58 59 59 59
43 43 42 42 43 42 41 42 43 43 44 45 48 51 52 52 52 51 49 49 49 50 53 55 57 57 55 51 47 45 43 42 43 43 44 44 44 44 44 44 44 45 46 48 48 49 49 50 52 53 54 56 57 58 59 60 60 60 59 59 58 57 56 56 57 58 57 58 58 59 60 61 61 62
42 42 42 42 43 43 41 39 39 40 41 41 44 49 52 52 52 50 49 48 49 50 52 54 55 55 54 51 48 45 43 42 42 43 44 44 44 43 42 42 43 44 46 47 47 48 49 50 52 53 54 55 56 57 58 59 59 58 57 56 56 55 54 55 56 57 58 59 60 62 63 63 64 64
41 41 42 41 42 42 41 39 38 38 39 39 42 46 49 51 51 50 48 48 49 50 51 53 53 53 51 50 47 44 41 41 43 44 44 44 43 42 41 41 42 43 45 46 46 47 49 50 51 52 53 53 54 55 56 56 56 55 54 53 53 52 52 53 55 57 59 61 63 64 65 66 67 68
41 41 41 41 41 41 42 41 40 40 40 39 41 44 47 49 49 48 47 47 48 50 50 51 51 50 49 48 45 42 40 41 43 44 43 43 42 41 41 40 40 42 44 45 46 47 48 50 50 51 51 51 52 53 53 53 53 52 51 51 50 50 51 53 55 58 61 63 65 66 68 69 69 70
41 40 40 40 40 41 42 42 42 42 41 40 41 43 45 47 48 47 46 47 48 48 48 48 48 47 46 44 42 40 40 41 42 43 42 41 40 40 40 40 40 40 42 44 46 46 47 48 48 49 49 48 49 51 51 50 49 49 49 49 50 51 53 55 57 60 62 65 67 68 69 70 70 69
40 40 39 40 40 41 40 40 42 42 41 41 41 42 44 45 46 46 46 47 46 45 45 45 45 44 43 41 40 39 39 40 41 41 40 39 39 39 40 40 40 39 40 43 46 46 46 46 46 46 45 44 45 48 48 48 46 46 47 49 51 53 55 58 60 62 64 66 68 69 69 69 68 68
41 39 39 40 40 40 39 38 40 42 42 42 41 42 42 44 45 46 45 44 43 41 42 44 44 43 41 39 38 37 38 39 39 39 37 37 38 39 39 40 39 38 39 43 46 46 45 44 45 45 43 41 42 44 44 44 44 45 47 49 52 54 57 59 61 63 65 67 68 68 68 68 68 68
40 40 40 41 41 40 38 38 40 43 43 42 41 41 41 43 45 45 43 41 40 39 40 41 41 40 37 36 36 36 36 38 37 35 36 37 38 39 39 38 37 36 38 41 45 46 44 43 45 45 42 41 41 41 41 41 42 44 46 49 52 54 57 59 61 64 65 67 68 68 68 68 67 67
35 39 41 42 41 40 37 37 40 43 42 40 40 40 41 42 43 42 39 38 37 37 37 38 38 37 35 34 34 34 34 34 34 34 35 36 37 37 36 35 34 35 36 38 43 46 45 44 45 45 41 40 40 40 40 40 41 44 47 50 53 55 57 59 61 63 65 65 65 65 64 64 64 64
33 35 38 40 39 38 36 37 40 40 38 37 38 39 39 39 38 38 37 36 35 36 36 36 37 36 34 33 32 32 31 32 32 34 34 34 35 35 34 34 33 33 33 35 41 46 45 43 45 44 40 38 39 38 39 41 43 45 46 49 52 55 57 59 61 61 61 60 59 59 59 60 61 63
32 31 33 35 36 36 35 36 37 36 34 35 36 37 36 35 36 36 37 36 35 35 35 35 35 33 31 30 29 29 30 31 32 32 32 32 32 33 33 33 32 32 31 33 39 45 44 42 44 43 39 38 38 38 38 41 42 43 45 47 51 53 55 57 58 57 56 55 55 55 56 57 60 63
30 28 29 32 34 34 33 32 32 32 31 32 33 33 32 33 35 36 36 35 34 34 34 33 31 30 28 27 27 28 29 30 30 29 29 29 30 30 30 31 32 31 29 31 38 43 43 41 42 42 40 38 36 36 37 39 40 41 43 46 49 51 53 54 54 54 54 54 56 57 57 57 59 62
27 26 27 30 30 30 30 30 29 28 29 30 30 28 28 30 33 33 33 33 32 32 31 30 29 27 26 25 25 26 27 27 27 27 27 27 27 28 28 29 31 31 30 31 37 40 41 40 40 41 41 38 34 34 37 39 40 41 42 45 48 49 50 51 52 52 54 57 59 59 58 56 55 58
24 24 25 26 26 27 28 27 27 27 27 27 26 25 27 29 30 30 31 32 31 30 29 28 26 24 23 23 23 24 25 25 25 25 25 25 25 26 26 28 30 31 30 33 38 39 39 39 38 39 41 39 35 35 37 39 41 41 41 44 47 47 47 48 51 54 58 60 60 58 55 52 51 53
20 21 23 23 23 25 25 25 26 25 24 24 24 24 26 27 29 30 31 30 29 28 26 24 23 21 21 21 22 22 23 23 23 23 23 24 24 25 26 27 29 29 30 33 38 39 38 38 38 40 41 40 38 37 38 39 40 41 41 42 44 45 47 49 50 53 56 55 55 53 50 47 47 49
19 21 22 22 21 22 22 22 23 23 22 22 23 24 26 28 30 30 29 28 27 25 23 21 20 20 20 20 21 21 21 21 21 21 22 23 24 25 26 27 29 29 29 32 36 38 39 39 40 42 43 41 39 39 40 39 39 40 41 40 41 44 46 47 46 47 49 50 51 49 45 43 44 45
19 20 20 19 19 19 19 19 20 20 20 21 22 24 27 29 29 27 26 25 24 22 20 19 19 19 19 19 19 18 19 19 20 21 22 22 24 25 26 27 29 29 29 31 34 37 39 39 41 43 45 44 40 40 41 40 39 40 40 40 41 42 42 41 41 43 45 46 47 45 41 39 40 40
18 18 17 17 17 16 16 16 18 18 18 20 23 25 26 26 26 25 24 22 21 19 18 18 18 18 18 17 17 17 18 19 19 20 21 23 24 25 25 27 28 28 29 31 33 35 38 39 41 43 46 45 42 41 41 40 39 40 40 39 40 40 38 38 39 41 42 42 41 40 38 36 35 34
17 18 17 16 15 14 14 16 18 18 19 21 23 24 25 24 24 22 21 20 19 18 18 18 17 17 16 16 16 17 17 18 18 19 21 23 24 24 25 25 27 28 29 30 32 34 36 38 40 43 46 47 45 43 43 42 39 39 41 42 41 39 36 36 38 40 41 40 39 38 36 33 31 30
16 16 16 15 15 15 16 17 17 17 19 21 22 23 24 22 21 20 19 18 18 18 18 17 16 15 15 16 17 17 16 16 17 19 21 22 23 24 24 24 25 26 27 29 31 32 34 36 38 41 45 48 48 44 44 44 42 39 41 43 42 38 35 36 38 39 39 38 38 38 35 32 30 29
14 15 15 14 15 15 15 15 14 15 19 21 21 22 22 20 20 19 18 18 18 18 17 16 15 15 16 17 17 16 15 16 18 19 20 21 22 22 23 24 24 24 25 27 29 31 33 34 36 38 42 47 49 47 44 44 43 40 40 41 40 37 37 39 41 40 39 38 38 36 32 30 30 30
14 14 14 14 13 13 13 12 14 18 21 22 21 21 20 19 19 19 18 18 18 17 16 15 15 16 16 17 16 15 15 17 18 19 20 20 21 22 23 24 24 23 23 24 26 28 30 31 32 34 37 42 47 48 45 42 39 37 37 37 37 36 38 41 43 41 37 36 34 31 28 27 28 28
12 11 10 10 10 11 12 15 17 20 22 21 20 20 20 19 19 18 18 17 16 15 15 15 15 16 16 15 15 15 16 17 18 19 19 19 20 21 23 24 25 24 24 24 24 25 26 27 28 30 32 36 42 47 47 41 35 33 34 35 36 37 38 39 40 36 31 29 28 26 23 22 22 23
9 8 7 7 9 12 15 17 19 20 20 20 20 20 19 18 18 18 17 16 15 15 15 15 16 16 15 14 14 15 16 17 18 18 18 19 20 21 23 24 24 25 25 25 26 26 26 26 25 24 25 27 32 40 45 42 35 31 32 33 35 36 35 34 31 26 22 22 21 20 19 18 18 18
7 8 10 11 13 15 17 18 19 20 20 20 20 19 18 18 17 16 16 15 15 15 15 15 15 14 14 14 14 15 17 18 18 17 18 19 20 21 23 24 24 25 26 27 27 27 28 28 27 25 23 22 21 26 33 37 35 31 30 31 33 33 31 29 23 18 18 19 19 19 16 13 11 12
9 10 13 14 15 16 18 19 20 20 20 20 19 18 18 17 16 16 15 15 15 15 14 14 14 13 13 14 14 15 17 17 18 17 18 19 20 21 22 23 24 25 26 28 28 28 29 30 31 30 29 26 22 20 22 27 32 33 31 30 30 29 28 25 20 18 22 24 21 17 12 6 3 4
10 11 14 15 16 17 18 19 20 20 19 19 18 18 17 16 15 15 15 14 14 14 13 13 13 13 13 14 14 15 17 17 18 18 18 19 20 21 22 23 23 24 25 27 28 29 29 30 32 33 32 31 28 24 21 22 27 32 33 31 29 27 25 23 21 22 24 21 14 8 5 4 4 6
11 12 14 15 16 17 19 19 19 19 18 18 17 16 16 15 15 15 14 13 13 13 13 12 13 13 13 14 14 15 16 17 17 18 19 20 21 22 22 23 23 23 25 26 27 28 30 30 31 33 33 33 32 30 27 25 26 30 34 33 30 27 23 19 19 21 19 14 9 7 7 6 4 4
12 13 14 15 17 18 18 18 18 18 17 17 16 15 15 15 14 14 13 13 12 12 12 12 13 13 13 14 14 15 16 17 17 18 20 21 22 22 23 23 23 23 24 25 26 27 29 30 30 31 32 33 34 34 33 32 30 30 32 32 30 28 23 18 18 18 15 12 10 8 8 6 2 1
13 14 15 17 17 18 18 18 18 18 18 17 16 16 15 15 14 13 13 13 12 12 12 12 13 13 13 13 14 15 16 17 18 19 20 21 22 23 24 25 25 24 25 26 26 27 28 29 30 31 32 33 34 34 34 32 29 27 28 28 28 28 24 19 18 15 13 12 10 7 8 7 2 4
13 14 15 16 16 17 18 18 18 18 18 17 16 16 15 14 14 13 13 13 12 12 12 12 13 13 13 14 15 16 17 18 18 19 20 21 23 24 25 26 26 26 26 26 27 28 28 28 30 31 32 32 33 33 33 32 28 24 23 23 25 26 25 21 18 15 11 10 9 7 8 8 4 3
13 14 14 14 15 15 17 17 17 17 17 17 16 15 15 14 14 13 13 13 12 12 12 13 14 14 15 15 16 17 18 19 20 21 22 22 23 24 25 27 27 28 27 27 27 28 29 29 29 30 31 32 33 33 33 33 30 26 23 20 20 21 23 22 19 15 12 10 9 9 7 5 3 1
13 14 14 14 14 15 16 16 17 17 17 16 16 16 15 14 14 14 14 14 13 13 13 14 15 16 16 17 18 19 20 21 22 23 23 24 25 25 26 27 28 28 28 28 27 28 29 30 30 30 30 31 32 33 34 33 32 29 25 21 19 18 18 20 18 14 12 10 11 12 9 4 4 7
13 14 14 14 14 15 16 17 17 17 17 17 16 16 15 15 15 15 15 15 14 14 15 16 17 18 19 19 20 21 22 23 24 25 26 27 27 28 28 28 28 29 30 29 28 28 28 30 31 31 31 31 32 33 34 34 33 31 27 23 22 20 16 15 15 13 11 11 10 10 9 5 6 10
13 13 13 14 14 15 16 17 17 18 17 17 16 16 16 16 16 16 17 16 16 16 17 18 19 20 21 22 23 24 25 26 27 27 28 29 30 30 31 31 30 30 31 31 30 29 29 29 30 31 31 32 31 32 33 33 34 33 29 25 24 22 18 13 12 11 12 12 11 9 9 9 8 10
Wind_Direction
251 252 253 253 254 255 256 256 255 254 253 254 256 257 257 257 256 254 254 255 257 258 260 260 258 256 255 255 255 255 256 257 258 260 261 262 264 265 266 267 268 269 270 271 271 272 273 273 274 274 274 275 276 276 277 277 277 277 276 276 276 275 274 274 273 271 270 267 265 264 263 262 263 263
252 252 253 253 253 254 255 255 255 254 252 252 253 254 256 258 257 256 256 256 256 257 257 257 257 256 254 254 254 255 256 257 258 259 261 262 263 265 266 267 269 270 271 272 272 273 273 274 274 275 275 276 277 277 277 278 277 277 276 276 275 274 273 272 270 268 266 264 262 261 260 259 260 261
252 252 252 252 253 253 254 255 255 255 253 252 251 251 253 255 256 256 257 257 257 257 257 256 256 256 255 254 253 254 255 256 257 259 260 262 263 264 266 267 269 270 272 272 273 273 274 275 275 276 276 277 278 278 278 278 278 277 277 276 275 274 273 271 269 266 264 261 259 259 258 258 259 260
254 252 251 250 251 252 252 253 255 255 254 252 250 249 250 252 254 255 256 257 257 257 258 257 257 256 255 254 254 254 255 256 257 259 260 262 263 265 266 268 269 270 272 273 273 273 274 275 276 277 278 278 279 279 279 279 278 278 277 276 275 274 273 271 268 264 262 259 257 257 258 259 260 261
257 255 253 250 250 250 250 250 252 253 253 252 249 248 247 249 251 253 254 255 257 257 258 259 259 258 257 256 255 255 255 256 258 259 260 261 263 265 267 268 269 270 271 271 272 273 274 275 277 277 278 279 279 279 279 279 278 278 277 276 275 274 272 270 266 263 261 258 255 255 257 260 261 262
260 258 256 254 252 251 249 249 250 251 252 251 249 248 247 248 250 251 252 254 256 257 257 258 259 258 258 258 256 255 256 257 258 260 261 262 263 265 266 267 268 269 270 271 272 273 275 276 277 278 279 279 279 279 279 279 279 278 278 277 276 274 272 269 265 261 260 256 254 254 256 259 261 263
262 260 258 257 256 254 252 249 248 249 251 251 249 248 247 248 249 250 250 252 255 256 256 257 258 257 257 258 258 257 258 258 260 261 263 264 264 265 266 267 268 269 270 271 272 274 275 276 277 278 279 279 279 279 279 279 279 279 278 277 276 274 271 268 263 259 257 255 253 255 256 258 261 264
260 259 258 257 257 257 255 252 249 248 250 250 249 248 247 247 249 249 249 251 255 257 256 256 257 257 256 257 258 258 260 261 261 262 263 264 265 265 266 267 267 269 270 271 272 273 274 276 278 279 279 279 279 279 280 280 280 279 278 278 276 273 270 266 261 257 255 254 254 255 257 259 262 264
258 257 257 256 256 256 256 255 252 249 248 249 248 247 247 247 248 248 249 250 253 257 257 255 255 256 256 257 258 259 261 262 263 264 265 265 266 266 266 267 268 269 270 271 272 273 275 277 278 279 279 280 280 280 281 280 280 280 279 278 276 273 269 264 258 255 254 253 254 256 257 260 264 266
255 256 255 255 255 255 254 255 254 253 250 248 247 246 246 246 247 248 248 249 251 255 258 255 253 255 256 256 258 260 261 263 265 267 268 268 267 267 267 268 269 270 271 272 273 275 276 277 278 279 279 280 281 281 282 281 281 280 279 277 275 272 268 262 256 255 254 254 255 257 260 263 266 268
252 253 253 254 254 254 253 253 254 254 253 250 247 245 245 245 246 247 247 248 249 252 256 255 253 255 256 257 258 260 262 264 266 268 268 269 269 269 269 269 269 270 271 273 275 276 278 278 279 280 280 281 282 282 282 282 281 280 279 276 274 270 266 260 256 255 255 256 258 260 263 265 268 270
252 252 252 253 254 253 253 253 252 252 254 253 248 244 243 243 245 246 246 247 247 248 253 254 253 254 256 258 259 260 262 264 266 267 268 270 270 270 270 270 270 272 273 274 276 278 279 280 280 281 282 282 283 282 282 282 281 280 278 275 272 268 264 261 258 257 258 259 261 263 266 268 269 271
251 251 251 253 254 253 251 251 250 249 250 253 251 245 243 242 243 244 244 245 245 246 250 253 253 254 255 258 259 261 263 264 266 268 269 271 272 271 270 270 272 274 276 276 278 279 280 281 281 282 283 283 283 282 281 281 280 279 277 274 271 268 265 263 261 261 262 263 264 266 268 269 270 271
251 251 251 252 254 253 252 250 249 248 247 250 251 247 244 242 242 243 243 243 244 246 249 252 252 254 255 257 259 261 263 264 265 268 270 270 271 271 270 272 274 276 277 278 279 279 280 281 282 283 283 284 284 283 282 280 278 277 276 274 272 270 269 267 266 266 266 266 268 268 269 270 270 270
252 251 251 251 251 252 253 253 250 247 246 247 248 247 244 243 241 240 239 240 242 245 249 251 252 253 255 257 260 261 262 263 265 268 269 269 270 270 272 273 275 278 278 278 279 280 281 282 283 284 285 286 285 283 281 279 276 275 274 273 271 270 269 268 267 267 268 268 268 269 269 270 270 270
254 253 251 250 251 251 253 254 251 248 246 245 245 245 243 242 241 239 237 238 241 244 249 251 251 252 255 257 259 259 260 263 266 267 268 269 270 271 274 276 277 279 280 280 280 281 283 284 285 286 288 287 284 280 277 275 274 272 270 268 267 266 265 265 266 266 267 268 268 269 270 270 270 268
255 254 252 250 251 251 252 253 250 248 247 245 243 242 242 242 241 238 236 236 239 242 246 249 251 252 254 255 256 257 260 263 265 266 267 269 271 273 275 276 278 281 283 283 283 283 285 287 288 289 291 288 282 277 273 272 272 270 268 267 266 267 267 267 268 269 270 271 272 272 272 271 269 267
255 254 252 251 251 250 251 252 249 247 246 244 241 240 241 241 241 238 236 235 237 240 243 248 251 252 251 252 254 256 260 262 263 265 267 269 272 273 275 278 281 284 286 286 286 286 287 291 293 293 293 288 281 276 274 273 274 273 272 273 273 273 274 274 275 275 274 275 275 274 274 273 270 268
258 254 251 251 253 253 252 251 247 246 246 243 241 240 240 241 242 241 238 236 237 240 243 247 250 249 249 250 253 255 257 260 262 265 267 269 271 273 276 280 282 284 287 290 290 290 292 296 296 295 293 288 281 279 279 279 279 279 279 279 279 279 279 279 278 277 276 276 276 275 275 274 272 270
263 257 251 251 253 254 253 249 245 244 244 241 239 240 239 239 240 240 238 236 237 239 241 243 245 247 247 248 250 253 256 259 262 264 267 270 273 276 278 280 281 284 290 294 293 293 296 298 297 295 293 288 282 282 284 283 283 283 283 284 283 283 282 281 279 278 277 277 277 277 277 275 273 271
263 259 253 251 253 254 251 247 244 243 241 237 238 240 238 236 237 237 237 236 236 237 239 241 242 243 244 246 248 252 255 258 261 264 268 272 275 278 280 282 284 289 295 296 293 294 297 299 297 295 292 288 285 285 285 285 285 285 285 285 285 285 283 282 280 280 279 278 279 278 278 277 274 271
258 257 254 252 252 251 248 245 245 244 240 238 238 239 238 237 237 238 237 235 234 236 238 239 239 239 241 244 248 251 255 258 263 267 271 274 276 280 284 288 291 293 296 296 294 295 298 299 298 296 291 286 284 285 284 284 286 288 288 288 287 285 283 282 281 281 280 279 279 278 278 277 273 270
254 254 252 249 248 247 245 244 244 243 241 239 239 238 237 238 238 237 236 234 234 235 235 235 235 235 238 242 247 252 256 261 266 269 272 276 279 285 290 293 294 297 299 298 295 297 299 299 299 298 295 290 286 286 289 291 292 294 295 293 290 288 285 284 283 282 280 279 279 279 278 276 272 269
252 249 245 243 244 244 244 244 243 242 239 237 236 234 235 236 236 234 233 232 232 232 230 230 231 233 238 243 248 254 259 262 267 270 275 279 284 288 292 294 297 301 304 302 299 300 301 301 301 302 302 301 296 292 295 298 298 300 300 296 293 290 288 286 284 283 282 281 281 280 278 275 272 269
243 241 241 243 245 244 242 240 239 237 234 231 231 232 233 233 232 230 228 227 226 225 224 225 229 234 239 244 249 255 259 263 268 273 277 282 286 291 295 297 300 303 305 303 302 303 305 306 307 307 306 307 305 301 300 300 302 303 302 299 297 294 291 289 286 285 285 283 282 281 278 275 274 270
231 236 240 241 240 238 235 234 234 232 228 227 229 230 230 229 227 225 222 220 219 219 220 224 229 235 241 245 249 254 259 265 271 276 280 286 291 295 299 300 301 303 304 303 303 306 309 312 314 312 310 310 310 307 306 305 305 304 303 301 298 294 292 291 289 288 289 288 285 283 278 276 277 270
229 232 234 232 231 231 230 229 228 227 226 227 229 229 227 225 221 218 215 214 214 216 219 224 230 236 241 245 250 256 263 268 274 279 285 292 295 298 299 300 301 303 304 304 306 309 312 315 316 314 312 312 311 310 310 309 307 307 305 302 300 298 295 295 295 295 296 295 291 285 278 277 280 271
224 224 225 226 229 229 226 225 226 225 225 226 226 225 221 216 212 210 209 210 212 216 220 226 231 235 240 246 252 259 265 270 277 284 290 294 295 297 298 299 301 304 306 307 309 311 313 315 316 314 312 312 312 312 312 311 312 314 311 307 305 305 304 302 302 302 303 303 300 292 282 279 283 276
222 223 227 230 229 226 224 225 224 220 219 221 220 216 211 207 206 206 206 208 212 216 221 227 230 234 241 248 254 260 265 272 281 287 290 292 293 295 298 300 303 307 309 310 311 312 313 314 315 315 313 313 314 315 315 314 317 319 317 313 312 313 312 309 308 307 306 305 305 301 289 280 280 278
231 235 237 235 229 225 226 229 225 217 215 215 211 207 205 203 202 203 205 208 213 217 222 226 230 235 242 248 253 259 267 275 282 284 286 289 291 295 299 303 306 308 309 310 311 311 313 315 316 315 314 313 314 316 317 317 319 321 320 318 318 319 319 317 315 314 311 306 303 302 294 281 276 275
247 247 245 243 238 234 234 232 221 208 206 207 205 202 201 200 199 202 206 210 214 218 221 225 230 237 243 248 253 261 269 276 279 281 283 287 292 297 302 304 306 308 309 311 312 312 313 315 315 316 315 314 313 315 316 317 319 321 321 320 320 322 325 323 320 318 313 305 301 300 294 282 274 270
252 251 252 254 250 241 232 219 205 199 201 203 202 199 197 198 200 203 207 211 215 218 221 226 233 239 245 251 257 265 272 275 278 281 284 290 296 301 303 303 305 308 309 310 312 312 313 314 315 315 315 313 312 313 315 316 318 320 322 322 321 323 325 323 320 317 310 303 302 301 295 284 275 267
254 256 258 254 242 227 213 204 203 203 203 201 199 197 197 199 202 205 209 212 215 219 223 229 235 241 247 255 262 270 274 276 279 283 288 295 299 301 303 305 306 309 312 313 314 314 314 314 315 315 315 314 313 311 312 314 316 319 325 326 323 322 322 320 319 318 315 310 308 302 291 282 274 266
252 245 227 210 204 203 202 202 204 203 200 197 197 198 199 201 204 207 211 213 216 221 226 231 237 243 251 258 265 272 276 277 281 286 292 298 300 301 303 306 308 311 315 317 318 318 317 316 316 314 313 314 314 311 311 314 316 321 330 331 325 321 321 320 321 324 323 320 317 308 293 280 272 265
228 207 190 186 193 197 198 199 200 197 196 196 196 198 200 203 206 210 213 216 220 224 229 235 241 247 255 261 268 273 276 280 284 289 295 298 300 302 304 307 310 313 315 318 320 321 321 321 321 320 316 314 314 311 311 315 319 325 333 333 327 324 323 322 324 325 319 317 319 315 301 282 271 270
200 193 187 188 194 194 193 195 195 194 195 196 197 199 202 204 208 212 215 219 223 228 234 240 246 253 258 264 270 273 277 281 285 289 295 298 300 303 305 307 311 314 316 318 320 322 324 325 326 326 325 322 321 323 325 328 327 328 331 333 330 327 323 319 317 312 310 314 317 311 301 292 305 324
193 193 191 191 192 191 192 194 194 194 196 198 198 201 204 207 211 215 218 223 228 233 240 245 250 257 261 265 271 275 278 283 287 291 296 298 300 303 305 307 310 312 314 317 319 321 324 326 326 328 329 328 327 327 334 341 338 331 330 332 332 328 322 317 314 311 311 316 322 324 331 355 6 349
194 195 195 192 190 191 193 195 196 197 199 200 202 205 208 212 216 218 222 227 232 238 245 249 254 261 264 268 273 278 282 287 291 295 298 299 301 303 303 305 307 310 312 316 318 320 323 325 326 328 329 331 332 331 332 341 345 337 332 332 332 330 326 320 321 325 325 324 329 345 2 18 26 344
197 194 192 191 192 195 197 196 197 199 201 203 207 210 213 217 220 223 226 231 237 243 249 253 259 264 268 273 279 284 288 292 296 299 300 300 300 302 302 304 306 308 311 314 316 319 321 323 324 327 329 333 336 336 336 339 342 339 334 330 329 329 328 319 319 333 342 337 330 338 352 3 38 200
198 193 191 192 194 197 198 198 199 201 203 206 210 214 217 220 223 226 231 236 241 247 253 258 264 269 274 281 286 290 293 296 298 300 302 302 302 302 303 305 307 308 310 313 315 317 319 321 323 326 330 333 336 336 335 335 335 335 334 331 328 330 331 323 316 324 339 340 337 343 349 351 6 172
198 196 195 198 200 200 201 202 204 206 208 212 216 218 220 224 227 231 238 242 247 253 259 266 272 278 283 288 292 295 297 300 302 303 305 305 305 305 305 305 307 308 310 311 313 315 318 322 324 327 329 331 331 332 332 331 331 332 333 332 331 331 332 328 320 316 323 332 333 333 339 351 22 106
196 198 200 203 206 207 208 209 211 213 216 218 220 222 225 228 232 238 244 248 253 260 268 274 280 285 289 293 296 299 302 304 306 307 308 307 306 306 305 304 305 306 307 309 312 314 317 321 323 324 326 326 326 328 329 330 330 330 329 330 332 333 333 330 323 312 308 311 305 296 306 327 331 314
196 201 207 209 210 212 215 217 219 221 222 223 224 227 230 234 239 244 250 255 260 267 274 279 284 288 292 295 298 302 305 307 309 309 309 308 307 306 306 305 304 305 306 308 311 313 315 318 319 320 322 323 324 325 326 327 329 329 328 327 330 333 333 330 324 316 313 313 298 284 281 270 243 251
203 206 211 216 217 218 218 219 222 225 226 227 230 234 237 240 245 250 255 260 265 270 276 281 285 289 293 296 300 304 306 309 310 310 309 309 308 307 307 307 306 306 307 308 309 311 313 315 316 317 319 320 321 322 323 324 326 327 326 326 328 328 326 322 316 310 311 319 312 290 278 262 230 234
217 216 218 222 224 225 224 224 224 225 228 231 235 238 242 245 249 254 258 263 269 273 277 281 285 289 294 297 300 304 306 308 309 310 309 309 309 308 308 308 308 309 309 308 309 310 311 311 313 315 316 317 318 319 320 322 322 322 323 325 325 322 318 315 308 292 285 296 306 297 286 284 254 227